Wind_Speed
25 25 26 26 26 27 27 27 28 27 27 27 29 30 31 30 30 30 30 30 30 30 30 30 31 31 32 33 35 35 36 37 38 39 39 40 41 42 43 44 45 46 47 47
26 26 27 27 26 27 28 28 28 29 28 28 30 30 31 31 31 30 30 30 30 30 31 31 32 32 32 33 35 35 36 37 38 39 39 40 41 41 42 43 45 46 47 48
28 28 29 28 26 28 28 29 30 29 28 29 30 30 30 30 30 30 30 29 30 31 31 32 33 33 34 34 35 37 37 38 38 39 40 41 42 42 43 44 44 45 46 47
29 29 30 28 28 29 29 29 30 30 29 29 29 29 29 29 29 29 29 29 30 31 32 32 33 34 35 36 36 37 37 38 39 40 41 41 42 42 43 44 45 45 45 46
30 30 30 29 29 30 30 30 30 30 30 30 30 30 29 29 29 29 29 30 31 31 32 33 34 35 36 37 38 38 39 40 40 40 40 41 42 43 44 45 46 46 47 47
30 31 31 30 31 31 31 32 30 30 30 30 30 30 29 29 30 30 30 31 31 32 33 33 34 35 36 37 37 38 39 39 39 39 39 40 41 42 44 45 45 46 46 45
29 31 31 31 31 31 32 32 31 31 31 31 31 31 30 30 30 31 31 32 33 33 34 34 34 35 36 36 37 37 37 37 38 38 38 39 40 41 43 43 44 44 44 44
29 30 30 30 31 32 32 32 32 31 31 32 31 31 31 31 31 31 32 32 33 34 34 34 35 35 36 36 36 36 36 36 36 37 38 39 40 41 42 43 43 42 42 42
29 30 30 31 31 32 32 33 32 32 31 31 31 31 30 30 31 31 31 32 33 33 34 34 34 34 35 35 35 35 35 35 35 36 37 39 40 40 40 40 39 39 39 38
29 29 30 31 31 31 32 32 32 32 31 31 31 31 30 30 31 31 32 32 32 32 32 33 33 33 33 33 33 33 32 32 33 33 34 36 36 37 36 36 35 35 35 34
28 28 29 29 30 31 31 31 31 31 31 30 30 30 30 31 31 31 31 31 31 31 31 32 32 32 31 31 32 32 32 32 32 33 34 35 34 34 33 31 31 31 31 32
27 28 29 28 28 29 29 29 29 29 29 30 30 30 30 30 29 30 30 30 30 30 31 31 31 30 30 30 30 30 31 31 32 33 33 33 32 31 30 30 30 29 29 29
29 29 29 28 27 27 27 28 28 28 29 29 29 29 30 30 29 30 30 30 30 30 30 30 30 30 30 30 30 30 30 30 30 30 30 29 29 29 29 28 28 27 26 26
30 29 29 29 29 28 28 28 28 28 28 29 29 29 29 29 29 30 30 30 30 30 30 30 30 30 30 30 30 30 30 29 29 29 28 28 28 28 27 27 26 26 25 24
30 30 30 30 29 29 29 29 29 29 29 29 29 29 29 29 30 30 30 30 30 30 30 30 29 29 29 28 28 28 28 28 28 27 27 27 26 26 26 25 25 24 23 23
30 32 32 31 30 30 30 30 30 30 30 30 30 30 29 30 30 30 30 30 30 30 30 29 28 28 27 27 27 26 27 27 27 26 25 24 24 24 24 24 24 23 22 22
30 30 31 31 31 30 30 30 31 31 31 31 31 30 30 30 30 29 30 30 30 29 29 28 27 26 26 26 26 26 26 26 26 25 24 24 23 23 23 22 21 21 21 22
28 29 29 30 30 30 30 31 31 31 31 31 31 31 30 30 29 29 29 29 29 28 27 27 26 25 25 25 25 24 24 23 23 23 23 23 23 23 22 21 21 20 20 20
28 28 29 29 30 30 30 30 30 31 31 30 29 29 28 28 29 29 28 28 27 26 26 25 25 24 24 24 24 24 23 22 22 22 22 22 22 22 22 21 21 20 20 19
27 27 27 28 29 29 28 28 28 28 28 28 28 28 28 28 28 28 27 26 25 24 24 23 23 23 23 23 23 22 22 22 21 21 21 21 21 21 21 21 20 20 19 18
26 27 27 28 28 28 27 27 27 27 26 26 26 27 27 27 27 27 26 25 24 24 23 22 22 22 22 22 22 21 21 21 21 21 21 21 21 21 20 20 20 19 18 18
25 25 26 27 27 27 27 26 26 26 25 25 25 25 25 25 25 25 25 24 23 23 23 22 22 21 21 21 20 20 20 20 20 20 20 20 20 19 19 19 19 18 18 18
25 25 25 25 25 25 24 25 25 25 25 24 25 24 24 23 23 23 23 23 23 23 23 22 22 21 21 21 20 20 20 20 20 19 19 19 18 18 18 18 18 18 18 18
25 25 25 25 25 24 23 23 23 23 24 24 24 24 24 23 22 22 22 22 22 22 22 22 22 21 21 21 21 20 20 19 19 18 18 18 18 18 18 18 18 18 18 18
25 25 24 24 23 23 23 22 21 21 22 23 23 23 23 23 22 22 22 22 21 21 21 21 21 21 21 20 20 19 18 18 18 18 18 18 17 17 17 17 16 16 17 17
24 24 23 23 22 22 22 22 21 21 21 21 21 21 21 21 21 21 21 21 20 20 20 20 20 20 19 19 18 17 16 16 17 17 17 17 17 16 16 15 16 16 16 16
24 23 23 22 22 22 22 21 21 21 20 20 20 20 20 20 20 20 20 20 19 20 20 19 19 18 18 17 17 16 15 15 15 15 16 16 15 15 14 14 15 15 15 15
Wind_Direction
270 269 270 271 272 273 275 277 278 279 280 282 282 281 280 281 281 280 277 274 273 273 272 271 271 270 271 271 273 273 274 274 273 273 272 272 272 272 271 270 271 271 272 272
269 269 269 271 273 274 275 278 279 278 280 282 283 283 281 280 280 279 276 274 274 273 273 273 273 272 272 274 274 275 275 274 274 274 273 273 273 273 272 273 273 274 273 273
271 270 270 270 273 274 274 277 278 279 281 281 282 282 282 281 280 278 276 274 275 275 275 275 275 274 274 276 277 276 275 274 275 275 274 274 274 274 274 275 275 275 275 274
274 273 273 275 274 275 275 276 278 279 280 280 281 282 282 281 279 277 275 274 275 276 276 277 277 276 277 277 278 278 276 276 276 275 275 274 275 275 276 276 276 276 275 275
274 275 276 275 275 277 277 277 278 278 278 279 281 281 281 281 279 277 275 275 276 277 278 278 278 278 278 279 279 280 279 278 278 277 277 276 277 277 277 277 276 276 276 276
274 275 278 278 277 278 278 278 277 278 279 279 279 279 280 280 279 277 277 277 277 279 280 280 280 279 280 280 280 280 279 279 278 278 277 278 278 278 279 279 278 278 277 277
273 275 277 279 279 278 277 278 278 278 278 278 279 279 279 277 277 277 278 279 279 281 282 281 281 281 282 281 281 281 280 279 278 278 279 280 280 281 281 280 280 279 277 277
272 275 278 279 278 276 277 277 277 278 278 277 278 278 278 276 276 277 280 281 282 282 282 282 282 282 283 283 283 282 282 281 281 280 281 283 284 284 283 282 281 280 278 277
274 276 278 277 276 277 277 277 277 278 279 279 279 279 278 277 277 278 280 283 283 283 283 284 284 284 284 284 284 284 284 284 283 284 284 285 287 287 285 283 282 280 279 277
276 278 278 277 275 275 276 278 279 279 278 278 279 279 279 279 279 280 281 283 284 286 286 285 285 285 285 285 285 286 286 285 285 286 287 289 289 289 287 285 284 281 280 278
278 279 278 277 275 275 276 277 278 278 278 278 279 279 279 281 281 281 281 282 284 286 287 287 287 286 285 286 286 286 286 286 286 287 288 290 291 290 289 287 285 283 281 280
278 279 278 278 276 276 275 276 277 277 278 278 279 279 279 280 281 282 282 282 283 286 288 288 287 286 285 285 286 287 288 287 287 289 290 290 290 290 289 288 287 285 282 279
276 276 276 276 276 276 276 276 276 277 277 277 278 279 279 280 281 283 283 283 283 285 288 289 288 287 286 285 285 287 289 290 290 291 290 290 292 290 288 288 288 287 285 282
274 275 275 276 278 278 278 278 276 276 275 277 278 279 280 281 281 282 283 284 285 286 288 289 289 287 286 285 285 287 289 289 290 291 291 290 290 291 290 289 288 288 286 283
273 274 274 275 278 279 279 277 275 275 275 277 278 280 281 282 282 282 283 284 285 287 289 289 289 288 286 286 286 287 289 290 291 291 290 290 290 291 291 291 291 289 286 284
275 275 274 275 276 277 278 277 275 274 275 276 277 278 280 282 282 282 283 284 285 286 288 289 288 287 285 285 286 287 289 290 291 291 289 288 289 291 291 290 289 287 285 284
279 278 276 276 276 276 277 277 276 275 275 275 275 277 279 281 281 282 284 284 285 286 287 287 287 286 286 287 288 289 289 289 290 290 289 287 288 290 291 291 289 287 285 283
283 280 278 278 278 278 279 278 277 276 276 275 275 276 279 280 281 282 284 285 286 285 285 285 286 286 286 287 287 289 290 290 291 291 290 288 289 291 292 292 289 287 287 287
284 282 280 280 280 281 281 281 279 277 276 276 275 276 278 280 280 281 283 284 283 283 284 284 284 285 287 287 287 288 289 289 289 291 291 290 290 290 292 291 288 287 287 286
286 284 283 282 283 283 282 281 280 278 277 276 276 277 279 281 281 281 282 282 281 281 282 283 284 285 286 288 289 288 286 286 287 288 290 291 291 290 289 288 286 284 284 284
287 286 285 285 285 284 282 281 280 279 277 276 277 278 279 280 281 280 280 281 280 280 280 282 284 285 286 288 288 287 286 285 286 288 290 292 292 291 287 285 284 282 280 282
290 288 287 286 286 284 283 282 280 279 278 278 278 279 280 281 281 280 280 280 279 278 278 280 282 284 285 285 286 287 286 286 287 288 290 292 292 290 287 285 284 282 280 280
291 290 288 287 286 286 285 283 281 279 279 279 279 279 280 281 281 280 280 279 278 278 278 279 281 283 283 283 284 285 285 287 287 288 290 292 292 291 290 287 285 283 280 279
291 291 289 287 285 285 285 285 284 281 279 279 280 279 279 280 280 280 279 279 279 279 279 280 281 283 283 282 282 282 284 286 287 287 290 293 294 293 292 291 287 284 281 279
290 290 290 287 285 284 284 285 285 283 282 281 280 279 279 278 278 279 279 279 279 279 278 280 281 282 283 283 282 281 282 285 287 289 292 294 294 293 292 290 288 286 284 281
290 290 289 288 286 285 284 284 284 283 284 284 282 280 278 278 277 278 277 277 277 279 279 279 281 283 283 282 280 279 281 284 287 289 291 293 294 293 291 290 289 289 288 286
289 288 289 288 286 285 285 284 284 284 285 286 285 282 280 279 278 278 276 276 277 280 281 280 281 281 280 278 277 277 279 283 287 290 291 291 292 292 292 291 291 290 290 288
Height
5623 5623 5622 5622 5622 5620 5619 5619 5618 5618 5616 5616 5613 5611 5610 5608 5607 5605 5604 5603 5602 5601 5600 5598 5597 5596 5595 5594 5593 5592 5590 5589 5588 5586 5585 5584 5583 5582 5580 5579 5579 5578 5577 5576
5615 5615 5613 5613 5614 5613 5612 5611 5610 5609 5608 5607 5604 5602 5601 5599 5598 5597 5595 5594 5593 5592 5591 5589 5588 5587 5586 5585 5583 5581 5580 5578 5577 5575 5573 5572 5571 5570 5568 5567 5566 5565 5564 5562
5607 5607 5605 5605 5607 5605 5604 5603 5602 5601 5601 5598 5596 5594 5592 5590 5589 5588 5587 5585 5584 5583 5581 5580 5579 5577 5576 5575 5573 5571 5569 5568 5566 5564 5562 5561 5559 5558 5557 5555 5553 5552 5550 5549
5597 5598 5596 5600 5598 5596 5595 5595 5593 5592 5591 5589 5587 5585 5584 5582 5580 5579 5578 5577 5575 5574 5573 5571 5569 5568 5566 5564 5562 5560 5558 5557 5555 5553 5551 5549 5548 5546 5544 5542 5540 5539 5537 5536
5588 5587 5588 5590 5589 5587 5586 5585 5584 5583 5582 5580 5578 5577 5576 5574 5572 5570 5569 5568 5566 5565 5563 5561 5559 5557 5555 5553 5551 5549 5547 5545 5543 5541 5539 5537 5535 5533 5531 5529 5527 5526 5524 5522
5580 5578 5578 5581 5579 5577 5576 5575 5575 5573 5572 5571 5569 5568 5568 5565 5563 5562 5560 5559 5557 5555 5553 5551 5549 5547 5545 5543 5541 5539 5536 5534 5532 5530 5527 5525 5523 5521 5518 5516 5514 5512 5510 5508
5571 5569 5569 5571 5569 5567 5567 5567 5565 5564 5563 5562 5560 5559 5558 5556 5554 5553 5551 5549 5548 5546 5544 5541 5539 5537 5535 5533 5530 5528 5525 5523 5521 5518 5516 5513 5511 5508 5505 5503 5500 5498 5496 5495
5562 5561 5563 5561 5558 5558 5557 5556 5555 5554 5553 5552 5551 5549 5548 5547 5545 5544 5542 5540 5538 5536 5534 5531 5529 5527 5525 5522 5520 5517 5515 5512 5510 5507 5504 5502 5499 5496 5492 5489 5487 5485 5482 5481
5554 5555 5553 5551 5549 5548 5547 5547 5546 5545 5544 5543 5541 5540 5538 5537 5536 5534 5533 5531 5529 5526 5524 5522 5519 5517 5514 5512 5509 5507 5504 5502 5499 5496 5493 5490 5487 5483 5479 5476 5473 5471 5470 5468
5544 5544 5543 5541 5539 5539 5538 5537 5536 5535 5534 5533 5532 5531 5529 5528 5526 5525 5523 5521 5519 5517 5514 5512 5509 5507 5504 5502 5499 5497 5494 5492 5489 5486 5483 5480 5476 5472 5468 5465 5462 5460 5458 5458
5535 5535 5533 5531 5530 5530 5528 5527 5527 5526 5525 5524 5523 5521 5520 5519 5517 5515 5513 5512 5509 5507 5505 5502 5500 5497 5495 5492 5490 5487 5485 5482 5480 5477 5473 5470 5466 5463 5459 5456 5453 5451 5450 5448
5526 5525 5523 5523 5521 5520 5520 5519 5518 5517 5516 5515 5514 5512 5511 5509 5508 5506 5504 5502 5500 5498 5495 5493 5490 5488 5486 5483 5481 5479 5476 5473 5470 5467 5464 5460 5457 5454 5451 5448 5445 5443 5441 5439
5516 5515 5514 5513 5512 5511 5510 5509 5508 5508 5507 5506 5505 5503 5502 5500 5498 5497 5495 5493 5491 5489 5486 5483 5481 5479 5476 5474 5472 5470 5467 5464 5462 5458 5455 5452 5449 5446 5444 5441 5438 5435 5433 5431
5506 5506 5505 5504 5503 5502 5501 5500 5499 5499 5498 5497 5495 5494 5492 5491 5489 5487 5486 5484 5481 5479 5477 5474 5472 5469 5467 5465 5463 5461 5458 5456 5453 5450 5447 5444 5442 5439 5436 5433 5431 5428 5426 5424
5497 5496 5495 5495 5494 5493 5492 5491 5490 5489 5488 5487 5486 5485 5483 5481 5480 5478 5476 5474 5472 5470 5468 5465 5463 5460 5458 5456 5454 5452 5450 5448 5445 5442 5440 5437 5434 5431 5428 5426 5423 5421 5419 5418
5487 5486 5485 5485 5484 5483 5482 5481 5480 5479 5478 5477 5476 5475 5474 5472 5470 5468 5467 5465 5463 5460 5458 5456 5454 5452 5450 5448 5446 5444 5442 5439 5437 5434 5432 5429 5427 5424 5422 5419 5417 5415 5413 5411
5478 5476 5475 5475 5474 5473 5472 5471 5470 5469 5468 5467 5466 5465 5464 5462 5461 5459 5457 5455 5453 5451 5449 5447 5445 5443 5441 5440 5438 5436 5434 5431 5429 5426 5424 5422 5420 5417 5415 5412 5410 5408 5406 5405
5468 5467 5466 5465 5463 5463 5462 5461 5460 5459 5457 5456 5456 5455 5454 5452 5451 5450 5448 5446 5444 5442 5440 5439 5437 5435 5433 5431 5430 5428 5426 5423 5421 5419 5417 5415 5412 5410 5408 5406 5404 5402 5400 5399
5459 5458 5456 5455 5454 5453 5452 5451 5449 5448 5447 5446 5446 5445 5444 5442 5441 5440 5438 5437 5435 5434 5432 5430 5428 5427 5425 5423 5421 5420 5418 5416 5414 5412 5410 5407 5405 5403 5401 5399 5397 5396 5394 5392
5450 5449 5448 5446 5445 5444 5442 5441 5440 5438 5437 5437 5436 5435 5434 5433 5432 5430 5429 5428 5427 5425 5423 5422 5420 5419 5417 5415 5413 5412 5410 5409 5407 5405 5403 5401 5399 5397 5395 5393 5391 5390 5388 5387
5441 5440 5439 5437 5436 5434 5433 5431 5430 5429 5428 5427 5427 5426 5425 5424 5422 5421 5420 5420 5418 5417 5415 5414 5413 5411 5410 5408 5406 5404 5403 5401 5400 5398 5396 5394 5392 5390 5388 5387 5385 5384 5383 5382
5433 5431 5430 5428 5426 5425 5423 5422 5421 5420 5419 5418 5418 5417 5416 5415 5414 5413 5412 5411 5410 5409 5408 5407 5405 5404 5402 5401 5399 5398 5396 5394 5393 5391 5389 5388 5386 5384 5382 5381 5379 5378 5377 5376
5425 5423 5421 5419 5418 5416 5414 5413 5412 5411 5410 5410 5409 5408 5407 5406 5405 5404 5404 5403 5402 5401 5400 5399 5398 5396 5395 5394 5392 5391 5389 5388 5386 5385 5383 5382 5380 5378 5376 5375 5373 5372 5371 5371
5417 5415 5413 5411 5409 5408 5406 5404 5403 5402 5401 5401 5400 5399 5398 5398 5397 5396 5395 5394 5394 5393 5392 5391 5390 5389 5388 5386 5385 5384 5383 5381 5380 5378 5377 5375 5374 5372 5371 5369 5368 5367 5366 5365
5408 5406 5404 5402 5401 5399 5398 5396 5395 5394 5393 5392 5391 5390 5389 5389 5388 5388 5387 5386 5386 5385 5384 5383 5382 5381 5380 5379 5378 5377 5376 5375 5373 5372 5371 5369 5368 5366 5365 5364 5362 5361 5360 5359
5400 5398 5396 5394 5393 5391 5390 5389 5388 5386 5385 5384 5383 5382 5381 5381 5380 5380 5379 5378 5378 5377 5377 5376 5375 5374 5373 5372 5371 5370 5369 5369 5367 5366 5365 5364 5362 5361 5360 5358 5357 5356 5355 5354
5391 5390 5388 5386 5385 5384 5382 5381 5380 5379 5377 5376 5375 5374 5373 5373 5372 5372 5371 5371 5371 5370 5369 5369 5368 5367 5366 5365 5365 5364 5364 5363 5362 5361 5360 5359 5357 5356 5355 5353 5352 5351 5350 5349